Location: Ch�teauneuf
(44.1273°N, 6.8326°E)
Time: 21:10:11
(UTC+00:00)

Daily predictions for brighter satellites

Satellite Brightness Start Highest point End
(mag) Time Altitude Azimuth Time Altitude Azimuth Time Altitude Azimuth
Cosmos 1461 3.2 17:50:23 10° NNW 17:54:15 43° NE 17:57:59 10° ESE
Cosmos 2082 Rocket 2.5 17:51:12 10° NNW 17:56:57 76° WSW 18:02:36 10° SSE
Landsat 5 3.8 17:53:49 10° N 17:57:43 67° WNW 18:01:41 10° SSW
Cosmos 2184 Rocket 4.3 17:55:09 10° SSE 18:01:10 47° E 18:07:09 10° NNE
YAOGAN 1 2.7 17:57:17 10° SSE 18:01:28 53° ENE 18:05:42 10° N
ARGOS 3.2 17:58:00 10° SSE 18:03:21 85° ENE 18:08:45 10° NNW
Cosmos 1486 Rocket 4.0 17:59:41 10° SSW 18:04:56 86° ESE 18:10:16 10° NNE
Lacrosse 5 rocket 2.4 18:02:01 10° NW 18:06:16 36° NNE 18:10:14 11° E
Cosmos 1674 Rocket 3.5 18:03:40 10° N 18:08:00 64° E 18:12:16 10° SSE
SJ 16-02 2.9 18:08:44 10° SE 18:11:20 15° E 18:13:56 10° ENE
CZ-4 R/B 1.2 18:08:49 10° SSE 18:12:37 71° ENE 18:16:28 10° N
Cosmos 1943 Rocket 2.2 18:07:14 10° S 18:12:40 58° ESE 18:18:11 10° NNE
Cosmos 1975 2.8 18:09:21 10° S 18:13:19 86° W 18:17:20 10° N
ISS -2.2 18:10:44 10° W 18:13:48 32° NNW 18:16:55 10° NE
Feng Yun 1-1 Rocket 4.3 18:09:27 10° SSE 18:14:51 86° WSW 18:20:18 10° NNW
COSMO-SKYMED 1 3.7 18:10:42 10° N 18:14:53 48° WNW 18:19:03 10° SW
Okean 2 3.3 18:11:09 10° N 18:15:14 71° E 18:19:18 10° SSE
Cosmos 2278 Rocket 4.1 18:12:33 10° WSW 18:17:35 32° NW 18:22:39 10° N
Cosmos 2154 Rocket 4.3 18:14:16 10° SSE 18:20:16 46° E 18:26:17 10° NNE
Cosmos 2369 Rocket 2.8 18:16:04 10° SSE 18:21:02 32° ESE 18:26:00 10° NE
SL-08 RB Rocket 3.7 18:17:11 10° SSE 18:21:39 89° W 18:26:09 10° NNW
CZ-2C R/B 3.2 18:17:47 10° N 18:23:17 68° WNW 18:28:49 10° SSW
BREEZE-M DEB (TANK) 1.5 18:22:35 10° WNW 18:24:33 73° SSW 18:25:48 20° ESE
Cosmos 1400 Rocket 2.9 18:20:51 10° S 18:24:51 55° E 18:28:50 10° NNE
SJ-6B 4.2 18:23:39 15° ESE 18:25:49 22° ENE 18:29:02 10° NNE
Cosmos 773 Rocket 4.4 18:21:51 10° N 18:26:54 45° ENE 18:31:47 11° SE
Lacrosse 4 Rocket 4.3 18:24:46 10° WNW 18:26:54 14° NW 18:29:05 10° N
Cosmos 2297 3.7 18:22:49 10° SSW 18:28:30 86° ESE 18:34:16 10° NNE
SeaSat 1 3.3 18:25:20 15° ESE 18:28:48 32° NE 18:33:09 10° N
Cosmos 1733 Rocket 4.3 18:26:30 10° SSW 18:30:38 44° WNW 18:34:48 10° N
CSL-04 Debris 4.2 18:27:14 10° SSE 18:32:32 58° ENE 18:37:49 10° N
Cosmos 1805 4.1 18:31:54 10° SSE 18:35:12 27° E 18:38:31 10° NNE
Nadezhda 3 Rocket 4.0 18:30:11 10° N 18:36:15 57° ENE 18:42:17 10° SSE
Helios 1A Rocket 4.4 18:35:32 17° ENE 18:36:15 18° ENE 18:39:04 10° NNE
Cosmos 1238 Rocket 3.8 18:30:16 10° S 18:36:40 74° E 18:42:22 10° NNE
H-2A R/B 2.2 18:33:29 10° N 18:37:42 76° WNW 18:41:48 10° SSW
Cosmos 1782 Rocket 3.9 18:34:35 10° SSE 18:38:47 42° E 18:42:58 10° NNE
DMSP B5D2-2 4.0 18:33:44 10° NNE 18:39:04 80° ESE 18:44:21 10° S
Cosmos 783 Rocket 4.5 18:36:27 10° NNW 18:41:46 70° ENE 18:47:01 10° SSE
Cosmos 1674 2.7 18:39:42 10° N 18:43:21 55° E 18:46:24 14° SSE
Cosmos 1707 3.4 18:41:23 10° NNW 18:45:15 58° W 18:49:04 10° S
H-2A R/B 4.5 18:44:09 10° SW 18:48:09 24° W 18:52:15 10° NW
IRS-1C Rocket 4.3 18:43:49 10° S 18:49:03 72° WSW 18:54:19 10° NNW
CZ-4B R/B 1.1 18:47:28 10° NNE 18:50:33 89° WNW 18:53:40 10° SSW
CZ-3B R/B 4.4 18:46:54 10° WNW 18:53:22 24° WSW 18:56:20 10° SSW
Okean-O 2.8 18:49:06 10° S 18:53:31 74° WSW 18:57:58 10° NNW
USA 215 3.2 18:49:44 20° ESE 18:54:32 80° NE 19:01:08 10° NW
Ariane Rocket 4.0 18:53:34 24° E 18:54:40 26° ENE 18:58:48 10° N
Cosmos 1656 Rocket 4.0 18:50:03 10° S 18:55:15 42° ESE 19:00:25 10° NE
Atlas Centaur 2 4.1 18:49:09 10° SW 18:56:08 29° S 19:00:06 20° SE
ASTRO F (AKARI) 4.3 18:53:55 16° SSE 18:56:34 88° E 18:59:57 10° NNW
PSLV R/B 3.8 18:52:57 10° NNE 18:57:07 67° ESE 19:01:11 10° S
KORONAS-FOTON 3.7 18:54:46 10° N 18:58:34 90° SW 19:01:46 14° S
Meteor 1-12 Rocket 4.3 18:52:47 10° S 18:58:43 65° E 19:04:38 10° NNE
Cosmos 1025 Rocket 3.7 18:55:51 10° N 18:59:48 33° ENE 19:00:13 33° E
Cosmos 1766 4.2 19:01:43 29° ENE 19:01:43 29° ENE 19:04:20 10° NNE
COSMOS 2455 3.3 18:55:09 10° NW 19:01:06 62° WSW 19:07:01 10° SSE
Cosmos 1626 2.0 19:00:30 10° N 19:04:11 62° E 19:05:10 43° SE
Cosmos 1538 Rocket 4.3 18:59:54 10° N 19:05:06 47° ENE 19:07:03 33° ESE
USA 276 3.7 19:03:32 10° WNW 19:06:19 28° N 19:07:18 23° NNE
Cosmos 1975 Rocket 3.0 19:03:25 10° N 19:07:51 69° E 19:10:06 28° SSE
Cosmos 1733 3.1 19:06:54 30° SSE 19:08:32 59° E 19:12:18 10° NNE
Cosmos 2341 Rocket 4.1 19:02:32 10° SSE 19:08:39 54° E 19:14:50 10° NNE
Resurs 01 Rocket 3.1 19:10:07 22° NE 19:10:07 22° NE 19:12:53 10° NNE
MetOp-A 4.4 19:04:48 10° S 19:10:07 70° WSW 19:15:30 10° NNW
Cosmos 2366 rocket 4.4 19:11:33 31° ESE 19:13:17 38° E 19:18:51 10° NNE
Cosmos 1346 Rocket 2.7 19:09:56 10° N 19:13:58 87° W 19:15:52 30° S
USA 186 1.6 19:15:20 75° W 19:15:20 75° W 19:18:20 10° NNW
Cosmos 1300 Rocket 3.7 19:15:35 47° E 19:15:35 47° E 19:19:47 10° NNE
Resurs 1-3 3.8 19:18:50 47° E 19:19:02 48° ENE 19:23:16 10° N
CSL-04 Rocket 4.1 19:15:41 10° S 19:20:57 61° WSW 19:26:20 10° NNW
Cosmos 2218 Rocket 4.2 19:19:29 34° SE 19:21:28 45° E 19:27:19 10° NNE
NOSS 3-2 (A) 4.3 19:21:27 10° S 19:33:26 - NE 19:24:06 27° SSE
Meteor 2-10 4.4 19:28:38 46° E 19:28:44 46° E 19:34:01 10° NNE
Cosmos 158 Rocket 3.8 19:24:43 10° NNW 19:29:43 61° ENE 19:30:16 57° E
OBJECT-B 1.6 19:29:29 44° WSW 19:29:47 46° W 19:32:52 10° NNW
ATLAS CENTAUR R/B 2.9 19:25:31 10° NW 19:29:53 38° WSW 19:32:33 21° S
Cosmos 1777 Rocket 4.5 19:31:01 10° SSW 19:36:12 61° WNW 19:41:24 10° NNE
Cosmos 1959 Rocket 4.5 19:38:23 40° SSE 19:40:37 62° E 19:46:49 10° NNE
Cosmos 1184 Rocket 4.2 19:39:23 10° NNW 19:41:53 37° WNW 19:41:53 37° WNW
Cosmos 864 Rocket 4.4 19:40:50 46° SSE 19:42:34 62° E 19:48:40 10° NNE
Cosmos 2297 Rocket 4.2 19:40:50 10° NNE 19:43:33 14° NE 19:43:33 14° NE
Lacrosse 5 rocket 2.2 19:41:14 10° WNW 19:45:32 45° SW 19:45:50 44° SW
Cosmos 923 Rocket 4.5 19:41:48 10° N 19:46:16 45° NE 19:46:16 45° NE
Meteor 1-24 Rocket 3.6 19:42:13 10° N 19:47:23 62° ENE 19:47:23 62° ENE
SJ 16-02 2.1 19:45:07 10° SW 19:49:26 52° WNW 19:53:47 10° N
ISS -1.4 19:48:37 10° NW 19:50:41 21° NNW 19:50:41 21° NNW
Cosmos 1315 Rocket 3.8 19:52:22 30° SW 19:53:52 45° WNW 19:57:45 10° N
Okean 2 Rocket 4.3 19:58:44 33° N 19:58:44 33° N 20:01:12 10° N
Cosmos 1943 Rocket 4.4 19:52:19 10° WSW 19:56:49 25° NW 20:01:23 10° N
MOS 1 4.3 19:55:59 56° S 19:57:13 81° WSW 20:02:57 10° NNW
SPOT 1/Viking Rocket 4.4 19:59:16 37° NNE 19:59:16 37° NNE 20:02:50 10° N
BREEZE-M DEB (TANK) 4.4 19:43:42 10° WSW 19:58:00 85° NNW 19:59:06 59° NE
Cosmos 1833 4.1 19:53:53 10° NNW 19:59:32 80° WSW 20:00:03 72° S
IRS-1A Rocket 4.3 19:58:48 57° S 20:00:04 81° WSW 20:06:00 10° NNW
SJ-6B 4.4 19:59:16 29° SW 20:00:16 33° W 20:04:01 10° NNW
Cosmos 1680 Rocket 4.3 19:55:30 10° N 19:59:29 41° NNE 19:59:29 41° NNE
Terra 4.3 20:03:09 10° NNE 20:03:09 10° NNE 20:03:18 10° NNE
Cosmos 2369 Rocket 3.4 19:59:37 10° SW 20:04:55 40° WNW 20:10:15 10° NNE
Sich 1 Rocket 4.3 20:05:16 49° WSW 20:05:47 52° WNW 20:10:14 10° N
Cosmos 2227 Rocket 4.3 20:02:44 10° N 20:05:12 14° NE 20:05:12 14° NE
SeaSat 1 3.5 20:05:08 35° SW 20:06:12 39° WSW 20:10:50 10° NW
EO 1 Delta rocket 4.3 20:07:04 55° WSW 20:07:34 59° W 20:12:50 10° NNW
Helios 1A Rocket 4.2 20:11:45 38° WNW 20:11:45 38° WNW 20:14:59 10° NNW
SL-8 Rocket 4.4 20:09:51 11° SSW 20:15:46 60° W 20:22:02 10° N
USA 281 3.1 20:10:36 10° NNE 20:16:37 72° ENE 20:16:37 72° ENE
Cosmos 1727 Rocket 4.1 20:26:14 10° N 20:32:02 74° NW 20:32:02 74° NW
Ariane Rocket 4.0 20:33:46 42° W 20:33:46 42° W 20:38:14 10° NNW
USA 215 4.4 20:37:05 30° SW 20:37:57 31° SW 20:43:40 10° WNW
Atlas Centaur 2 4.3 20:37:57 10° WSW 20:42:41 26° SSW 20:42:41 26° SSW
Resurs 01 Rocket 3.7 20:47:42 25° NW 20:47:42 25° NW 20:49:51 10° NNW
CENTAUR R/B 4.4 20:57:40 21° NNE 20:57:40 21° NNE 20:59:56 10° NE
Cosmos 2297 Rocket 4.1 21:23:07 10° NNW 21:25:21 24° NNW 21:25:21 24° NNW
Cosmos 2227 Rocket 4.4 21:45:16 10° NNW 21:47:00 21° NNW 21:47:00 21° NNW
